Time,TemperatureF,DewpointF,PressureIn,WindDirection,WindDirectionDegrees,WindSpeedMPH,WindSpeedGustMPH,Humidity,HourlyPrecipIn,Conditions,Clouds,dailyrainin,SoftwareType,DateUTC
2013-09-19 00:00:00,55.7,55.2,30.25,SE,124,0.0,0.0,98,0.00,,SKC,0.00,VWS V14.01,2013-09-19 04:00:00,
2013-09-19 00:30:00,55.7,54.9,30.24,SE,124,0.0,0.0,97,0.00,,SKC,0.00,VWS V14.01,2013-09-19 04:30:00,
2013-09-19 01:00:00,55.4,54.8,30.24,SE,124,0.0,0.0,98,0.00,,SKC,0.00,VWS V14.01,2013-09-19 05:00:00,
2013-09-19 01:30:00,55.9,55.3,30.24,SE,124,0.0,0.0,98,0.00,,SKC,0.00,VWS V14.01,2013-09-19 05:30:00,
2013-09-19 02:00:00,56.5,55.9,30.24,East,94,0.0,0.0,98,0.00,,SKC,0.00,VWS V14.01,2013-09-19 06:00:00,
2013-09-19 02:30:00,56.9,56.1,30.24,East,94,0.0,0.0,97,0.00,,SKC,0.00,VWS V14.01,2013-09-19 06:30:00,
2013-09-19 03:00:00,57.1,56.3,30.24,East,94,0.0,0.0,97,0.00,,SKC,0.00,VWS V14.01,2013-09-19 07:00:00,
2013-09-19 03:30:00,57.1,56.3,30.23,East,94,0.0,0.0,97,0.00,,SKC,0.00,VWS V14.01,2013-09-19 07:30:00,
2013-09-19 04:00:00,56.9,56.3,30.23,East,94,0.0,0.0,98,0.00,,SKC,0.00,VWS V14.01,2013-09-19 08:00:00,
2013-09-19 04:30:00,56.7,56.1,30.22,East,94,0.0,0.0,98,0.00,,SKC,0.00,VWS V14.01,2013-09-19 08:30:00,
2013-09-19 05:00:00,56.5,55.9,30.21,East,94,0.0,0.0,98,0.00,,SKC,0.00,VWS V14.01,2013-09-19 09:00:00,
2013-09-19 05:30:00,56.5,55.9,30.22,East,94,0.0,0.0,98,0.00,,SKC,0.00,VWS V14.01,2013-09-19 09:30:00,
2013-09-19 06:00:00,56.5,55.9,30.21,East,94,0.0,0.0,98,0.00,,SKC,0.00,VWS V14.01,2013-09-19 10:00:00,
2013-09-19 06:30:00,56.4,55.8,30.21,East,94,0.0,0.0,98,0.00,,SKC,0.00,VWS V14.01,2013-09-19 10:30:00,
2013-09-19 07:00:00,56.4,56.1,30.21,East,94,0.0,0.0,99,0.00,,SKC,0.00,VWS V14.01,2013-09-19 11:00:00,
2013-09-19 07:30:00,56.5,56.2,30.23,East,94,0.0,0.0,99,0.00,,SKC,0.00,VWS V14.01,2013-09-19 11:30:00,
2013-09-19 08:00:00,57.1,56.5,30.22,East,94,0.0,0.0,98,0.00,,SKC,0.00,VWS V14.01,2013-09-19 12:00:00,
2013-09-19 08:30:00,58.5,57.9,30.22,SSE,150,0.0,1.0,98,0.00,,SKC,0.00,VWS V14.01,2013-09-19 12:30:00,
2013-09-19 09:00:00,60.6,58.9,30.22,NNE,24,0.0,1.0,94,0.00,,SKC,0.00,VWS V14.01,2013-09-19 13:00:00,
2013-09-19 09:30:00,61.9,59.9,30.23,NNE,23,0.0,1.0,93,0.00,,SKC,0.00,VWS V14.01,2013-09-19 13:30:00,
2013-09-19 10:00:00,65.5,62.5,30.23,ENE,78,1.0,1.0,90,0.00,,SKC,0.00,VWS V14.01,2013-09-19 14:00:00,
2013-09-19 10:30:00,67.7,63.4,30.23,South,181,0.0,1.0,86,0.00,,SKC,0.00,VWS V14.01,2013-09-19 14:30:00,
2013-09-19 11:00:00,67.9,63.6,30.23,SSW,208,0.0,2.0,86,0.00,,SKC,0.00,VWS V14.01,2013-09-19 15:00:00,
2013-09-19 11:30:00,66.9,62.9,30.23,SE,131,0.0,2.0,87,0.00,,SKC,0.00,VWS V14.01,2013-09-19 15:30:00,
2013-09-19 12:00:00,67.1,63.1,30.23,SE,127,0.0,1.0,87,0.00,,SKC,0.00,VWS V14.01,2013-09-19 16:00:00,
2013-09-19 12:30:00,67.1,63.8,30.22,ESE,109,0.0,3.0,89,0.00,,SKC,0.00,VWS V14.01,2013-09-19 16:30:00,
2013-09-19 13:00:00,66.5,62.8,30.21,SSE,167,0.0,1.0,88,0.00,,SKC,0.00,VWS V14.01,2013-09-19 17:00:00,
2013-09-19 13:30:00,67.1,63.1,30.20,ESE,113,0.0,1.0,87,0.00,,SKC,0.00,VWS V14.01,2013-09-19 17:30:00,
2013-09-19 14:00:00,67.4,63.4,30.19,SE,134,0.0,1.0,87,0.00,,SKC,0.00,VWS V14.01,2013-09-19 18:00:00,
2013-09-19 14:30:00,67.8,63.8,30.18,SSW,201,0.0,1.0,87,0.00,,SKC,0.00,VWS V14.01,2013-09-19 18:30:00,
2013-09-19 15:00:00,67.4,63.4,30.17,SE,137,0.0,1.0,87,0.00,,SKC,0.00,VWS V14.01,2013-09-19 19:00:00,
2013-09-19 15:30:00,66.7,64.0,30.17,WSW,252,0.0,2.0,91,0.00,,SKC,0.00,VWS V14.01,2013-09-19 19:30:00,
2013-09-19 16:00:00,66.5,63.8,30.16,SE,141,0.0,1.0,91,0.00,,SKC,0.00,VWS V14.01,2013-09-19 20:00:00,
2013-09-19 16:30:00,65.8,63.4,30.16,SE,124,0.0,2.0,92,0.00,,SKC,0.00,VWS V14.01,2013-09-19 20:30:00,
2013-09-19 17:00:00,65.7,63.6,30.16,East,94,0.0,1.0,93,0.00,,SKC,0.00,VWS V14.01,2013-09-19 21:00:00,
2013-09-19 17:30:00,65.6,63.8,30.16,East,94,0.0,0.0,94,0.00,,SKC,0.00,VWS V14.01,2013-09-19 21:30:00,
2013-09-19 18:00:00,65.6,63.8,30.16,East,94,0.0,1.0,94,0.00,,SKC,0.00,VWS V14.01,2013-09-19 22:00:00,
2013-09-19 18:30:00,65.8,63.7,30.16,ESE,116,0.0,1.0,93,0.00,,SKC,0.00,VWS V14.01,2013-09-19 22:30:00,
2013-09-19 19:00:00,64.5,63.0,30.14,ESE,116,0.0,0.0,95,0.00,,SKC,0.00,VWS V14.01,2013-09-19 23:00:00,
2013-09-19 19:30:00,61.9,61.0,30.14,ESE,116,0.0,0.0,97,0.00,,SKC,0.00,VWS V14.01,2013-09-19 23:30:00,
2013-09-19 20:00:00,60.1,59.5,30.14,ESE,116,0.0,0.0,98,0.00,,SKC,0.00,VWS V14.01,2013-09-20 00:00:00,
2013-09-19 20:30:00,59.0,58.4,30.15,ESE,116,0.0,0.0,98,0.00,,SKC,0.00,VWS V14.01,2013-09-20 00:30:00,
2013-09-19 21:00:00,59.0,58.7,30.15,ESE,122,0.0,1.0,99,0.00,,SKC,0.00,VWS V14.01,2013-09-20 01:00:00,
2013-09-19 21:30:00,58.2,57.9,30.15,ESE,122,0.0,0.0,99,0.00,,SKC,0.00,VWS V14.01,2013-09-20 01:30:00,
2013-09-19 22:00:00,58.0,57.7,30.15,ESE,122,0.0,0.0,99,0.00,,SKC,0.00,VWS V14.01,2013-09-20 02:00:00,